Location: Poughquag
(41.6090°N, 73.6820°W)
Time: 06:11:36
(UTC-04:00)

ITUPSAT 1 - Pass Details

Date: 26 June 2024
Orbit: 695 x 705 km, 98.5° (Epoch: 24 July)

Event Time Altitude Azimuth Distance (km) Brightness Sun altitude
Rises 22:07:30 0° 28° (NNE) 3,106 ? -14.1°
Reaches altitude 10° 22:10:14 10° 43° (NE) 2,182 ? -14.4°
Maximum altitude 22:13:56 22° 94° (E) 1,516 ? -14.8°
Enters shadow 22:15:04 20° 114° (ESE) 1,587 ? -14.9°
